Tracking 19792 objects as of 16-Jul-2019
HD Live streaming from Space Station
objects crossing your sky now

SPARC-1

Track SPARC-1 now!
10-day predictions


NORAD ID: 44226
Int'l Code: 2019-026B
Perigee: 501.8 km
Apogee: 516.1 km
Inclination: 40.0 °
Period: 94.7 minutes
Semi major axis: 6879 km
RCS: Unknown
Launch date: May 5, 2019
Source: United States (US)
Launch site: Rocket Lab Launch Complex (RLLC)
aabbcc
Your satellite tracking list
Your tracking list is empty




NASA's NSSDC Master Catalog

Two Line Element Set (TLE):
1 44226U 19026B   19196.95670321 +.00001113 +00000-0 +56663-4 0  9991
2 44226 040.0200 175.3384 0010354 069.9664 290.2259 15.21336758010911
Source of the keplerian elements: AFSPC